Weather in Nikolaevka

Ukraine / Odesa District     47°31′55″N   30°15′00″E
temp.,
°C
wind,
m/s
gust,
m/s
humid.,
%
clouds,
%
prec.,
mm/h
press.,
hPa
HPBL,
m
21 june, mon
mon2100:00+19e36900 0.0 1011102
03:00+18ene11927 0.0 101111
06:00+18ne1191100 0.0 101112
09:00+22ese2382100 0.0 1011444
12:00+27sse3362100 0.0 10111237
15:00+29s33515 0.0 10111736
18:00+29se12480 0.0 10111739
21:00+24wnw116292 0.0 101111
22 june, tue
tue2200:00+23nne1169100 0.1 101111
03:00+21nnw3379100 1.1 101142
06:00+20nnw3489100 5.1 101185
09:00+24ne45700 5.7 1011504
12:00+28ene45541 0.0 10111232
15:00+30ene33482 0.0 10101560
18:00+30e245026 0.0 10101735
21:00+26ene3671100 0.5 1011121
23 june, wed
wed2300:00+22e378499 1.4 1012135
03:00+20ene378785 1.6 1012135
06:00+20nne228166 2.6 101231
09:00+24ene3465100 2.6 1013438
12:00+27ene225381 0.0 1013879
15:00+30se114798 0.0 10131407
18:00+29ene325528 0.0 10131187
21:00+24sse227466 0.3 101312
24 june, thu
thu2400:00+23nw238077 0.7 101452
03:00+20nw35884 0.7 101498
06:00+20n348820 0.0 101481
09:00+26nne34694 0.0 1014359
12:00+30nne34525 0.1 10141324
15:00+32n434634 0.1 10142304
18:00+31nne355496 0.0 1013259
21:00+26nne48717 0.0 1013160
25 june, fri
fri2500:00+23n22805 0.1 101324
03:00+22n22860 0.1 101321
06:00+22n35880 0.0 1014110
09:00+26n33700 0.0 1014454
12:00+30nne33574 0.0 10131201
15:00+32n33471 0.0 10132029
18:00+32ne434711 0.0 10121793
21:00+26ese116890 0.0 101311